Weather History for Kalispell, MT

Change the Weather History Date:

Friday, March 15, 2013

  Actual Average Record
Temperature  
Mean Temperature 46 °F 35 °F  
Max Temperature 57 °F 45 °F 64 °F (1910)
Min Temperature 34 °F 25 °F -10 °F (1906)
Degree Days  
Heating Degree Days 19 30  
Month to date heating degree days 430 487  
Since 1 July heating degree days 5717 6339  
Cooling Degree Days 0 0  
Month to date cooling degree days 0 0  
Year to date cooling degree days 0 0  
Moisture  
Dew Point 31 °F    
Average Humidity 64    
Maximum Humidity 89    
Minimum Humidity 38    
Precipitation  
Precipitation T in 0.04 in 0.35 in (1908)
Month to date precipitation 0.44 0.53  
Year to date precipitation 1.49 2.83  
Snow  
Snow 0.00 in - - ()
Month to date snowfall 0.8  
Year to date snowfall 8.3  
Since 1 July snowfall 17.1  
Snow Depth 0.00 in    
Sea Level Pressure  
Sea Level Pressure 30.02 in    
Wind  
Wind Speed 8 mph (SW)    
Max Wind Speed 18 mph    
Max Gust Speed 30 mph    
Visibility 10 miles    
Events      
T = Trace of Precipitation, MM = Missing Value Source: NWS Daily Summary

Daily Weather History Graph

Daily Weather History Graph

Search for Another Location

Airport:

Trip Planner

Search our weather history database for the weather conditions in past years. The results will help you decide how hot, cold, wet, or windy it might be!

Date:

Astronomy

Mar. 15, 2013 Rise Set
Actual Time 7:49 AM MDT 7:42 PM MDT
Civil Twilight 7:18 AM MDT 8:14 PM MDT
Nautical Twilight 6:42 AM MDT 8:50 PM MDT
Astronomical Twilight 6:04 AM MDT 9:27 PM MDT
Moon 9:21 AM MDT (3/15) No Moon Set
Length of Visible Light 12h 55m
Length of Day
11h 53m
Waxing Crescent, 16% of the Moon is Illuminated
Mar 15
Waxing Crescent
Mar 19
First Quarter
Mar 27
Full
Apr 2
Last Quarter
Apr 10
New

Hourly Weather History & Observations

Time (MDT) Temp. Windchill Dew Point Humidity Pressure Visibility Wind Dir Wind Speed Gust Speed Precip Events Conditions
12:55 AM 46.0 °F 44.8 °F 34.0 °F 63% 29.95 in 10.0 mi South 3.5 mph - N/A   Overcast
1:55 AM 50.0 °F - 30.0 °F 46% 29.95 in 10.0 mi SW 4.6 mph 17.3 mph N/A   Overcast
2:55 AM 50.0 °F - 28.0 °F 43% 29.96 in 10.0 mi SW 10.4 mph - N/A   Overcast
3:55 AM 50.0 °F - 28.0 °F 43% 29.96 in 10.0 mi Calm Calm - N/A   Overcast
4:55 AM 48.9 °F - 30.0 °F 48% 29.96 in 10.0 mi South 3.5 mph - N/A   Overcast
5:55 AM 48.0 °F - 30.9 °F 52% 29.97 in 10.0 mi SSW 10.4 mph - N/A   Mostly Cloudy
6:55 AM 46.9 °F - 30.9 °F 54% 30.00 in 10.0 mi SSW 10.4 mph - N/A   Overcast
7:55 AM 45.0 °F 38.5 °F 30.9 °F 58% 30.02 in 10.0 mi SW 13.8 mph - N/A   Clear
8:55 AM 42.1 °F 37.7 °F 30.9 °F 65% 30.04 in 10.0 mi South 6.9 mph - N/A   Clear
9:55 AM 48.9 °F - 33.1 °F 54% 30.04 in 10.0 mi SSE 8.1 mph - N/A   Overcast
10:55 AM 50.0 °F - 33.1 °F 52% 30.06 in 10.0 mi SSW 15.0 mph 20.7 mph N/A   Overcast
11:55 AM 51.1 °F - 32.0 °F 48% 30.08 in 10.0 mi SSW 11.5 mph - N/A   Overcast
12:55 PM 52.0 °F - 30.9 °F 45% 30.08 in 10.0 mi SW 12.7 mph - N/A   Overcast
1:55 PM 53.1 °F - 28.9 °F 40% 30.05 in 10.0 mi SW 13.8 mph - N/A   Mostly Cloudy
2:55 PM 54.0 °F - 28.9 °F 38% 30.04 in 10.0 mi WSW 13.8 mph - N/A   Mostly Cloudy
3:55 PM 55.9 °F - 30.0 °F 37% 30.02 in 10.0 mi SW 15.0 mph 19.6 mph N/A   Scattered Clouds
4:55 PM 53.1 °F - 28.9 °F 40% 30.02 in 10.0 mi West 12.7 mph 19.6 mph N/A   Overcast
5:55 PM 52.0 °F - 32.0 °F 47% 30.03 in 10.0 mi WSW 6.9 mph - 0.00 in   Overcast
6:55 PM 51.1 °F - 34.0 °F 52% 30.03 in 10.0 mi SW 8.1 mph - 0.00 in   Overcast
7:55 PM 46.9 °F - 32.0 °F 56% 30.05 in 10.0 mi SSW 10.4 mph - N/A   Scattered Clouds
8:55 PM 39.9 °F 34.5 °F 30.9 °F 70% 30.06 in 10.0 mi SW 8.1 mph - N/A   Clear
9:55 PM 37.9 °F 35.5 °F 32.0 °F 79% 30.06 in 10.0 mi North 3.5 mph - N/A   Mostly Cloudy
11:55 PM 36.0 °F - 32.0 °F 86% 30.05 in 10.0 mi Calm Calm - N/A   Overcast